1495846800.92,58047,13.44,73864.3,-0.99,-2.03,-2.15,0,*69
1495846802.16,58048,13.44,73864.0,-0.97,-1.99,-2.27,0,*69
1495846803.44,58049,13.44,73866.3,-0.97,-1.99,-2.07,0,*6A
1495846804.66,58050,13.44,73864.5,-0.99,-2.11,-2.23,0,*69
1495846805.85,58051,13.44,73866.3,-0.99,-2.15,-2.23,0,*6C
1495846807.07,58052,13.44,73868.0,-0.99,-2.39,-2.59,0,*6C
1495846808.25,58053,13.44,73870.0,-0.99,-2.27,-2.39,0,*64
1495846809.44,58054,13.44,73866.0,-0.99,-2.27,-2.39,0,*63
1495846810.63,58055,13.44,73862.8,-0.99,-2.27,-2.39,0,*62
1495846811.85,58056,13.44,73868.5,-0.99,-2.11,-2.27,0,*6B
1495846813.07,58057,13.44,73868.8,-0.99,-2.11,-2.27,0,*6A
1495846814.29,58058,13.44,73868.5,-0.99,-2.11,-2.27,0,*65
1495846815.54,58059,13.44,73868.3,-1.01,-2.03,-2.15,0,*56
1495846816.79,58060,13.44,73872.0,-1.01,-2.11,-2.23,0,*5A
1495846818.04,58061,13.44,73860.0,-1.01,-2.03,-2.27,0,*5C
1495846819.29,58062,13.44,73854.3,-1.01,-2.11,-2.23,0,*58
1495846820.57,58063,13.44,73860.0,-1.01,-2.47,-2.59,0,*57
1495846821.82,58064,13.44,73868.5,-1.01,-2.39,-2.51,0,*51
1495846823.07,58065,13.44,73868.8,-1.01,-2.03,-2.23,0,*5C
1495846824.33,58066,13.44,73872.8,-1.01,-2.11,-2.23,0,*5C
1495846825.55,58067,13.44,73864.0,-1.03,-2.11,-2.27,0,*5B
1495846826.8,58068,13.44,73850.8,-1.01,-2.11,-2.27,0,*56
1495846828.0,58069,13.44,73858.5,-1.03,-2.19,-2.31,0,*5A
1495846829.25,58070,13.44,73866.5,-1.01,-1.99,-2.27,0,*5C
1495846830.49,58071,13.44,73874.5,-1.01,-2.23,-2.47,0,*59
1495846831.69,58072,13.44,73882.8,-1.03,-2.19,-2.43,0,*55
1495846832.91,58073,13.44,73856.5,-1.03,-2.27,-2.51,0,*5A
1495846834.13,58074,13.44,73842.8,-1.01,-2.15,-2.39,0,*50
1495846835.38,58075,13.44,73858.0,-1.01,-2.11,-2.27,0,*5A
1495846836.63,58076,13.44,73860.5,-1.01,-2.03,-2.15,0,*5B
1495846837.83,58077,13.44,73846.3,-1.03,-2.15,-2.31,0,*59
1495846839.02,58078,13.44,73854.8,-1.03,-2.19,-2.43,0,*5F
1495846840.28,58079,13.44,73842.5,-1.01,-2.11,-2.35,0,*55
1495846841.53,58080,13.44,73842.8,-1.01,-2.11,-2.35,0,*53
1495846842.75,58081,13.44,73866.0,-1.01,-2.15,-2.35,0,*56
1495846844.0,58082,13.44,73864.3,-1.01,-2.11,-2.35,0,*51
1495846845.2,58083,13.44,73856.8,-1.03,-2.15,-2.35,0,*56
1495846846.42,58084,13.44,73860.3,-1.03,-2.27,-2.47,0,*55
1495846847.65,58085,13.44,73858.3,-1.03,-2.31,-2.51,0,*54
1495846848.9,58086,13.44,73856.3,-1.01,-2.39,-2.51,0,*5D
1495846850.12,58087,13.44,73848.5,-1.01,-2.39,-2.39,0,*52
1495846851.34,58088,13.44,73844.8,-1.03,-2.39,-2.51,0,*51
1495846852.56,58089,13.44,73854.5,-1.03,-2.39,-2.51,0,*50
1495846853.79,58090,13.44,73856.8,-1.03,-2.31,-2.51,0,*50
1495846855.01,58091,13.44,73852.0,-1.01,-2.15,-2.39,0,*5B
1495846856.26,58092,13.44,73848.5,-1.01,-2.35,-2.59,0,*5C
1495846857.51,58093,13.44,73862.0,-1.01,-2.15,-2.47,0,*50
1495846858.76,58094,13.44,73858.8,-1.01,-1.99,-2.35,0,*55
1495846860.01,58095,13.44,73852.0,-1.01,-1.99,-2.27,0,*57
1495846861.23,58096,13.44,73852.0,-1.01,-2.23,-2.39,0,*59
1495846862.49,58097,13.44,73854.3,-1.01,-2.11,-2.39,0,*59
1495846863.74,58098,13.44,73852.0,-1.01,-2.03,-2.35,0,*59
1495846864.99,58099,13.44,73844.8,-1.01,-1.99,-2.27,0,*5B
1495846866.24,58100,13.44,73850.0,-1.01,-1.99,-2.31,0,*5D
1495846867.47,58101,13.5,73854.3,-1.03,-2.07,-2.39,0,*52
1495846868.72,58102,13.44,73850.5,-1.01,-2.15,-2.47,0,*59
1495846869.97,58103,13.44,73848.8,-1.01,-2.11,-2.39,0,*55
1495846871.22,58104,13.44,73850.8,-1.01,-2.11,-2.39,0,*52
1495846872.44,58105,13.44,73852.0,-1.03,-2.07,-2.43,0,*5B
1495846873.67,58106,13.44,73856.8,-1.03,-2.03,-2.39,0,*51
1495846874.95,58107,13.44,73856.3,-1.01,-2.03,-2.47,0,*5B
1495846876.17,58108,13.44,73854.8,-1.03,-2.15,-2.51,0,*56
1495846877.42,58109,13.44,73856.0,-1.01,-2.11,-2.39,0,*5F
1495846878.7,58110,13.44,73858.0,-1.01,-2.03,-2.51,0,*5A
1495846879.95,58111,13.44,73858.3,-1.01,-2.03,-2.39,0,*55
1495846881.21,58112,13.44,73856.8,-1.03,-2.07,-2.51,0,*5E
1495846882.49,58113,13.44,73856.3,-1.01,-2.11,-2.47,0,*5D
1495846883.71,58114,13.44,73872.5,-1.03,-2.07,-2.43,0,*5B
1495846884.96,58115,13.44,73878.3,-1.01,-1.99,-2.35,0,*5D
1495846886.21,58116,13.44,73880.8,-1.01,-1.91,-2.35,0,*56
1495846887.46,58117,13.44,73872.3,-1.01,-1.99,-2.27,0,*5C
1495846888.71,58118,13.44,73870.5,-1.01,-2.03,-2.15,0,*52
1495846889.98,58119,13.44,73866.5,-1.01,-1.91,-2.03,0,*5C
1495846891.23,58120,13.44,73862.8,-1.03,-1.95,-2.07,0,*54
1495846892.48,58121,13.44,73870.0,-1.01,-1.79,-2.03,0,*51
1495846893.7,58122,13.44,73872.8,-0.99,-1.79,-1.91,0,*6A
1495846894.94,58123,13.44,73868.3,-0.99,-1.87,-2.03,0,*62
1495846896.22,58124,13.44,73870.0,-1.01,-1.87,-2.03,0,*55
1495846897.46,58125,13.44,73860.5,-1.01,-1.91,-2.23,0,*51
1495846898.72,58126,13.44,73860.3,-1.01,-1.99,-2.23,0,*5A
1495846899.97,58127,13.44,73876.0,-1.01,-2.03,-2.35,0,*5C
1495846901.19,58128,13.44,73880.5,-0.99,-1.99,-2.27,0,*60
1495846902.38,58129,13.44,73874.3,-0.99,-2.15,-2.39,0,*69
1495846903.6,58130,13.44,73862.8,-0.99,-2.35,-2.47,0,*6A
1495846904.78,58131,13.44,73858.5,-0.99,-2.39,-2.39,0,*6E
1495846906.0,58132,13.44,73856.5,-0.97,-2.43,-2.31,0,*66
1495846907.22,58133,13.44,73868.5,-1.01,-2.39,-2.35,0,*50
1495846908.44,58134,13.44,73882.8,-1.01,-2.35,-2.35,0,*5B
1495846909.66,58135,13.44,73866.3,-1.01,-2.27,-2.39,0,*55
1495846910.91,58136,13.44,73858.0,-1.01,-2.35,-2.47,0,*5C
1495846912.13,58137,13.44,73858.5,-1.01,-2.35,-2.27,0,*5B
1495846913.34,58138,13.44,73866.0,-1.01,-2.23,-2.27,0,*53
1495846914.6,58139,13.44,73856.5,-1.01,-2.11,-2.15,0,*52
1495846915.85,58140,13.44,73854.0,-1.01,-2.03,-2.15,0,*5F
1495846917.12,58141,13.44,73848.5,-1.01,-2.03,-2.03,0,*59
1495846918.37,58142,13.44,73852.8,-0.99,-2.03,-2.11,0,*69
1495846919.64,58143,13.44,73848.5,-1.01,-1.91,-2.11,0,*50
1495846920.92,58144,13.44,73846.8,-1.01,-1.99,-2.03,0,*5C
1495846922.19,58145,13.44,73848.8,-1.01,-1.91,-2.03,0,*55
1495846923.45,58146,13.44,73846.8,-1.01,-2.11,-2.23,0,*5F
1495846924.72,58147,13.44,73856.8,-1.01,-1.91,-2.03,0,*57
1495846926.0,58148,13.44,73852.5,-1.01,-1.87,-1.99,0,*5F
1495846927.28,58149,13.44,73858.5,-1.01,-1.99,-2.03,0,*51
1495846928.55,58150,13.44,73858.5,-1.01,-1.91,-1.99,0,*51
1495846929.83,58151,13.44,73854.0,-1.01,-1.87,-2.03,0,*57
1495846931.1,58152,13.44,73854.8,-1.01,-1.91,-2.03,0,*53
1495846932.38,58153,13.44,73854.5,-1.01,-1.91,-1.99,0,*52
1495846933.62,58154,13.44,73858.8,-1.01,-1.79,-1.91,0,*5B
1495846934.9,58155,13.44,73864.5,-1.01,-1.87,-1.99,0,*53
1495846936.18,58156,13.44,73868.8,-1.01,-1.99,-1.99,0,*5F
1495846937.4,58157,13.44,73866.0,-0.99,-1.79,-1.91,0,*68
1495846938.64,58158,13.44,73868.0,-0.99,-1.87,-1.87,0,*61
1495846939.86,58159,13.44,73866.3,-0.99,-1.79,-1.87,0,*61
1495846941.11,58160,13.44,73866.5,-0.99,-1.87,-1.99,0,*65
1495846942.35,58161,13.44,73866.3,-1.01,-1.79,-1.91,0,*5D
1495846943.57,58162,13.44,73862.0,-0.99,-1.79,-1.91,0,*6E
1495846944.76,58163,13.44,73848.0,-0.99,-1.79,-1.79,0,*69
1495846946.03,58164,13.44,73828.0,-1.01,-1.87,-1.87,0,*5E
1495846947.31,58165,13.44,73852.8,-1.01,-1.91,-1.99,0,*57
1495846948.58,58166,13.44,73858.3,-1.01,-1.87,-1.91,0,*5B
1495846949.86,58167,13.44,73856.5,-1.01,-1.87,-1.91,0,*5A
1495846951.13,58168,13.44,73856.3,-1.01,-1.87,-1.91,0,*55
1495846952.38,58169,13.44,73850.3,-1.01,-1.91,-2.15,0,*5C
1495846953.65,58170,13.44,73852.5,-1.01,-2.03,-2.11,0,*58
1495846954.9,58171,13.44,73850.3,-0.99,-1.87,-1.91,0,*6D
1495846956.15,58172,13.44,73848.8,-0.99,-1.87,-1.99,0,*66
1495846957.39,58173,13.44,73852.3,-0.99,-1.87,-1.99,0,*67
1495846958.63,58174,13.44,73846.3,-0.99,-1.87,-1.91,0,*68
1495846959.88,58175,13.44,73850.0,-0.99,-1.87,-1.91,0,*69
1495846961.12,58176,13.44,73854.8,-0.99,-1.87,-1.91,0,*6A
1495846962.36,58177,13.44,73856.5,-0.99,-1.87,-2.03,0,*63
1495846963.61,58178,13.44,73850.0,-0.99,-1.87,-1.91,0,*64
1495846964.85,58179,13.44,73860.0,-0.97,-1.75,-1.87,0,*61
1495846966.09,58180,13.44,73850.8,-0.99,-1.87,-1.99,0,*6B
1495846967.35,58181,13.44,73854.8,-0.97,-1.83,-1.95,0,*6C
1495846968.63,58182,13.44,73860.0,-1.01,-1.91,-1.99,0,*5E
1495846969.88,58183,13.44,73860.0,-0.99,-1.99,-1.99,0,*67
1495846971.12,58184,13.44,73858.5,-0.99,-1.91,-2.03,0,*68
1495846972.4,58185,13.44,73862.0,-1.01,-1.91,-1.99,0,*59
1495846973.64,58186,13.44,73876.8,-0.99,-1.91,-2.03,0,*6A
1495846974.89,58187,13.44,73858.3,-0.99,-1.99,-2.03,0,*63
1495846976.11,58188,13.44,73858.0,-0.99,-2.11,-2.23,0,*6D
1495846977.3,58189,13.44,73842.5,-0.99,-2.23,-2.27,0,*69
1495846978.49,58190,13.44,73850.3,-0.99,-2.15,-2.23,0,*60
1495846979.77,58191,13.44,73846.5,-1.01,-2.03,-2.11,0,*57
1495846981.04,58192,13.44,73838.8,-1.01,-1.99,-2.03,0,*57
1495846982.32,58193,13.44,73848.5,-1.01,-2.03,-2.11,0,*55
1495846983.57,58194,13.44,73860.8,-0.99,-2.11,-2.11,0,*61
1495846984.76,58195,13.44,73846.3,-1.03,-2.15,-2.19,0,*5E
1495846986.01,58196,13.44,73848.3,-1.01,-2.11,-2.15,0,*57
1495846987.24,58197,13.44,73838.5,-1.01,-2.15,-2.15,0,*52
1495846988.48,58198,13.44,73840.0,-1.01,-2.15,-2.11,0,*59
1495846989.76,58199,13.44,73846.8,-1.01,-2.11,-2.03,0,*5F
1495846991.04,58200,13.44,73846.8,-1.01,-2.03,-2.11,0,*5C
1495846992.31,58201,13.44,73846.0,-1.01,-2.03,-2.11,0,*5D
1495846993.59,58202,13.44,73842.0,-1.01,-1.91,-2.03,0,*55
1495846994.86,58203,13.44,73842.3,-1.01,-1.91,-2.03,0,*54
1495846996.13,58204,13.44,73838.3,-1.01,-1.91,-2.03,0,*53
1495846997.4,58205,13.44,73836.5,-1.01,-1.91,-2.03,0,*52
1495846998.68,58206,13.44,73846.5,-1.01,-1.99,-2.11,0,*5A
1495846999.96,58207,13.44,73850.8,-1.01,-1.99,-2.03,0,*58
1495847001.24,58208,13.44,73836.8,-1.01,-2.03,-2.11,0,*54
1495847002.49,58209,13.44,73846.8,-1.01,-1.99,-2.15,0,*51
1495847003.76,58210,13.44,73850.5,-1.01,-1.91,-2.03,0,*56
1495847005.04,58211,13.44,73834.5,-1.01,-1.99,-2.11,0,*5C
1495847006.29,58212,13.44,73834.0,-1.01,-2.03,-2.15,0,*5B
1495847007.57,58213,13.44,73842.0,-1.01,-1.91,-2.03,0,*55
1495847008.84,58214,13.44,73856.0,-1.01,-1.91,-2.11,0,*51
1495847010.11,58215,13.44,73846.8,-1.01,-1.91,-2.03,0,*53
1495847011.39,58216,13.44,73850.8,-1.01,-1.99,-2.03,0,*58
1495847012.66,58217,13.44,73842.3,-1.01,-1.91,-1.99,0,*51
1495847013.94,58218,13.44,73844.5,-1.01,-1.99,-2.11,0,*55
1495847015.23,58219,13.44,73848.3,-1.01,-1.99,-1.99,0,*57
1495847016.5,58220,13.44,73840.8,-1.01,-1.91,-1.99,0,*55
1495847017.77,58221,13.44,73852.3,-1.01,-1.91,-2.03,0,*54
1495847019.05,58222,13.44,73850.0,-1.01,-1.91,-1.99,0,*57
1495847020.33,58223,13.44,73848.3,-1.01,-1.87,-1.91,0,*59
1495847021.6,58224,13.44,73854.8,-1.01,-1.87,-1.99,0,*56
1495847022.88,58225,13.44,73856.0,-1.01,-1.87,-1.91,0,*5F
1495847024.16,58226,13.44,73862.8,-1.01,-1.87,-1.99,0,*54
1495847025.44,58227,13.44,73858.0,-1.01,-1.87,-1.99,0,*55
1495847026.71,58228,13.44,73858.8,-1.01,-1.87,-1.91,0,*52
1495847027.96,58229,13.44,73860.5,-1.01,-1.79,-1.91,0,*52
1495847029.17,58230,13.44,73858.8,-0.99,-1.79,-1.91,0,*6A
1495847030.39,58231,13.44,73862.8,-0.99,-1.79,-1.91,0,*6B
1495847031.64,58232,13.44,73862.8,-1.01,-1.79,-1.99,0,*50
1495847032.91,58233,13.44,73868.8,-1.01,-1.87,-2.03,0,*50
1495847034.19,58234,13.44,73864.8,-1.01,-1.99,-2.11,0,*5B
1495847035.47,58235,13.44,73864.5,-1.01,-2.11,-2.03,0,*5A
1495847036.75,58236,13.44,73866.8,-1.01,-1.99,-2.03,0,*5A
1495847038.02,58237,13.44,73870.8,-1.01,-1.91,-2.03,0,*53
1495847039.27,58238,13.44,73868.5,-1.03,-1.95,-2.07,0,*5E
1495847040.55,58239,13.44,73870.3,-1.01,-1.99,-1.99,0,*55
1495847041.8,58240,13.44,73850.5,-1.01,-1.91,-2.15,0,*54
1495847043.07,58241,13.44,73850.8,-1.01,-1.91,-2.03,0,*52
1495847044.35,58242,13.44,73866.5,-1.01,-1.91,-1.99,0,*51
1495847045.63,58243,13.44,73864.5,-1.01,-1.99,-2.11,0,*5B
1495847046.88,58244,13.44,73856.5,-1.01,-1.99,-2.15,0,*58
1495847048.13,58245,13.44,73858.8,-1.01,-1.79,-2.11,0,*53
1495847049.38,58246,13.44,73866.8,-1.01,-1.79,-1.91,0,*5B
1495847050.65,58247,13.44,73858.5,-1.01,-1.87,-1.99,0,*53
1495847051.9,58248,13.44,73858.3,-1.03,-1.91,-2.03,0,*59
1495847053.17,58249,13.44,73852.8,-1.01,-1.91,-2.03,0,*5A
1495847054.42,58250,13.44,73862.5,-1.01,-1.79,-1.91,0,*5C
1495847055.69,58251,13.44,73858.8,-1.01,-1.87,-1.91,0,*5C
1495847056.97,58252,13.44,73848.3,-1.01,-1.87,-1.91,0,*5F
1495847058.24,58253,13.44,73856.5,-1.01,-1.91,-1.99,0,*51
1495847059.52,58254,13.44,73868.8,-1.01,-1.87,-1.99,0,*51
1495847060.8,58255,13.44,73852.0,-1.01,-1.87,-1.99,0,*50
1495847062.08,58256,13.44,73858.5,-1.01,-1.99,-2.03,0,*5C
1495847063.34,58257,13.44,73856.5,-1.03,-1.99,-2.07,0,*5B
1495847064.61,58258,13.44,73864.5,-1.01,-1.91,-2.11,0,*59
1495847065.89,58259,13.44,73864.5,-1.01,-1.87,-1.99,0,*5C
1495847067.14,58260,13.44,73864.8,-1.01,-1.79,-1.99,0,*57
1495847068.41,58261,13.44,73870.3,-1.01,-1.91,-2.03,0,*50
1495847069.69,58262,13.44,73874.5,-1.01,-1.87,-2.11,0,*57
1495847070.96,58263,13.44,73858.0,-1.01,-1.91,-2.03,0,*52
1495847072.21,58264,13.44,73856.5,-0.99,-1.99,-2.11,0,*6E
1495847073.42,58265,13.44,73862.8,-0.99,-1.87,-2.15,0,*64
1495847074.64,58266,13.44,73862.8,-0.99,-1.91,-2.15,0,*60
1495847075.86,58267,13.44,73854.8,-0.99,-2.11,-2.35,0,*68
1495847077.08,58268,13.44,73858.5,-0.99,-2.15,-2.47,0,*66
1495847078.33,58269,13.44,73858.3,-1.01,-2.27,-2.47,0,*56
1495847079.58,58270,13.44,73862.0,-1.01,-2.27,-2.47,0,*5E
1495847080.82,58271,13.44,73868.3,-1.01,-2.23,-2.67,0,*59
1495847082.06,58272,13.44,73866.0,-0.99,-2.47,-3.67,0,*69
1495847083.33,58273,13.44,73854.8,-1.01,-2.51,-3.51,0,*5A
1495847084.57,58274,13.44,73836.5,-1.01,-2.51,-3.35,0,*5F
1495847085.82,58275,13.44,73842.5,-1.01,-2.47,-2.87,0,*51
1495847087.07,58276,13.44,73852.0,-1.01,-2.27,-2.59,0,*57
1495847088.29,58277,13.44,73848.8,-1.01,-2.35,-2.79,0,*57
1495847089.51,58278,13.44,73854.0,-1.01,-2.35,-2.87,0,*59
1495847090.75,58279,13.44,73850.3,-1.01,-2.51,-3.03,0,*57
1495847092.0,58280,13.44,73852.5,-1.01,-2.47,-2.91,0,*5C
1495847093.25,58281,13.44,73856.0,-1.01,-2.47,-2.91,0,*5D
1495847094.5,58282,13.44,73856.0,-1.01,-2.47,-2.99,0,*56
1495847095.72,58283,13.44,73866.0,-1.03,-2.51,-3.03,0,*50
1495847096.94,58284,13.44,73886.0,-1.03,-2.51,-3.03,0,*57
1495847098.19,58285,13.44,73862.5,-1.01,-2.63,-3.35,0,*50
1495847099.42,58286,13.44,73856.3,-1.03,-2.63,-2.95,0,*5A
1495847100.69,58287,13.44,73862.8,-1.01,-2.59,-2.59,0,*50
1495847101.91,58288,13.44,73866.0,-1.01,-2.27,-2.27,0,*5F
1495847103.13,58289,13.44,73860.0,-1.01,-2.35,-2.35,0,*5E
1495847104.32,58290,13.44,73854.8,-1.03,-2.39,-2.39,0,*54
1495847105.54,58291,13.44,73854.5,-1.01,-2.27,-2.15,0,*56
1495847106.77,58292,13.44,73854.8,-1.01,-2.23,-2.23,0,*54
1495847107.99,58293,13.44,73868.0,-1.01,-2.27,-2.23,0,*51
1495847109.21,58294,13.44,73866.0,-1.01,-2.23,-2.23,0,*52
1495847110.41,58295,13.44,73862.0,-1.03,-2.31,-2.19,0,*5B
1495847111.66,58296,13.44,73850.0,-1.01,-2.47,-2.27,0,*56
1495847112.94,58297,13.44,73862.5,-1.01,-2.47,-2.47,0,*51
1495847114.17,58298,13.44,73854.5,-1.03,-2.43,-2.51,0,*5F
1495847115.45,58299,13.44,73850.8,-1.01,-2.47,-2.47,0,*5F
1495847116.66,58300,13.44,73862.8,-1.03,-2.51,-2.43,0,*5F
1495847117.92,58301,13.44,73874.3,-1.03,-2.51,-2.51,0,*5D
1495847119.17,58302,13.44,73866.0,-1.01,-2.63,-2.79,0,*57
1495847120.39,58303,13.44,73850.8,-1.01,-3.03,-3.03,0,*5D
1495847121.58,58304,13.44,73856.3,-1.03,-3.19,-3.19,0,*58
1495847122.8,58305,13.44,73848.8,-1.01,-3.27,-3.39,0,*54
1495847124.05,58306,13.44,73862.0,-1.01,-3.39,-3.63,0,*57
1495847125.32,58307,13.44,73850.0,-1.01,-3.55,-4.01,0,*5F
1495847126.54,58308,13.44,73856.8,-1.03,-3.39,-3.47,0,*5D
1495847127.76,58309,13.44,73862.0,-1.01,-2.99,-3.27,0,*53
1495847128.99,58310,13.44,73864.8,-1.01,-2.79,-3.27,0,*55
1495847130.19,58311,13.44,73850.8,-1.03,-3.27,-3.79,0,*57
1495847131.44,58312,13.44,73844.0,-1.01,-3.27,-4.01,0,*5E
1495847132.66,58313,13.44,73856.8,-1.03,-3.55,-4.45,0,*58
1495847133.86,58314,13.44,73854.5,-1.03,-3.83,-4.45,0,*54
1495847135.06,58315,13.44,73852.0,-1.03,-3.87,-4.65,0,*53
1495847136.3,58316,13.44,73842.3,-1.01,-3.91,-4.65,0,*55
1495847137.53,58317,13.44,73850.3,-1.03,-3.95,-4.85,0,*5C
1495847138.74,58318,13.44,73846.3,-1.01,-4.45,-5.35,0,*51
1495847139.97,58319,13.44,73854.8,-1.03,-4.29,-5.11,0,*5E
1495847141.24,58320,13.44,73852.5,-1.01,-4.69,-5.69,0,*5D
1495847142.48,58321,13.44,73848.0,-1.03,-4.81,-5.73,0,*53
1495847143.71,58322,13.44,73844.8,-1.03,-4.21,-5.07,0,*59
1495847144.93,58323,13.44,73854.5,-1.03,-3.55,-4.49,0,*57
1495847146.14,58324,13.44,73852.0,-1.03,-3.39,-4.37,0,*53
1495847147.35,58325,13.44,73852.8,-0.99,-3.15,-3.55,0,*6D
1495847148.57,58326,13.44,73854.5,-1.03,-2.95,-3.43,0,*52
1495847149.77,58327,13.44,73860.3,-1.03,-2.79,-3.79,0,*58
1495847150.99,58328,13.44,73860.5,-1.03,-2.71,-3.39,0,*5B
1495847152.23,58329,13.44,73856.8,-1.03,-2.55,-3.67,0,*57
1495847153.47,58330,13.44,73860.5,-1.03,-2.63,-3.71,0,*5D
1495847154.7,58331,13.44,73860.5,-1.03,-2.67,-3.55,0,*5E
1495847155.95,58332,13.44,73858.8,-1.01,-2.67,-3.83,0,*54
1495847157.14,58333,13.44,73856.8,-1.03,-2.79,-3.95,0,*5F
1495847158.34,58334,13.44,73856.8,-1.03,-2.83,-4.37,0,*52
1495847159.53,58335,13.44,73860.3,-1.03,-2.83,-4.49,0,*5A
1495847160.73,58336,13.44,73858.3,-1.03,-2.79,-5.47,0,*53
1495847161.95,58337,13.44,73856.3,-1.05,-3.27,-6.13,0,*5C
1495847163.2,58338,13.44,73858.5,-1.05,-3.71,-5.47,0,*52
1495847164.45,58339,13.44,73856.8,-1.05,-3.59,-4.49,0,*56
1495847165.69,58340,13.44,73856.3,-1.05,-3.31,-3.67,0,*5D
1495847166.88,58341,13.44,73862.3,-1.03,-2.91,-3.39,0,*5A
1495847168.1,58342,13.44,73858.5,-1.01,-2.87,-3.35,0,*50
1495847169.29,58343,13.44,73854.3,-1.03,-2.79,-3.39,0,*5E
1495847170.49,58344,13.44,73854.0,-1.03,-2.79,-3.15,0,*57
1495847171.71,58345,13.44,73854.8,-1.03,-2.63,-3.15,0,*5D
1495847172.93,58346,13.44,73858.5,-1.03,-2.55,-3.39,0,*55
1495847174.16,58347,13.44,73862.8,-1.03,-2.67,-3.67,0,*5E
1495847175.4,58348,13.44,73858.0,-1.05,-2.79,-3.55,0,*59
1495847176.59,58349,13.44,73862.8,-1.07,-2.87,-3.87,0,*54
1495847177.84,58350,13.44,73860.8,-1.05,-2.95,-3.71,0,*54
1495847179.07,58351,13.44,73862.8,-1.05,-3.19,-4.21,0,*52
1495847180.27,58352,13.44,73864.0,-1.07,-3.31,-4.49,0,*57
1495847181.49,58353,13.44,73862.8,-1.05,-3.31,-4.45,0,*58
1495847182.71,58354,13.44,73870.8,-1.05,-3.15,-4.45,0,*59
1495847183.91,58355,13.44,73864.8,-1.03,-3.07,-4.37,0,*58
1495847185.14,58356,13.44,73862.8,-1.03,-3.15,-4.69,0,*53
1495847186.36,58357,13.44,73862.5,-1.05,-3.07,-4.61,0,*5F
1495847187.58,58358,13.44,73856.8,-1.05,-3.03,-4.09,0,*5A
1495847188.8,58359,13.44,73868.8,-1.05,-2.79,-3.91,0,*51
1495847190.02,58360,13.44,73860.8,-1.05,-2.79,-3.79,0,*5D
1495847191.22,58361,13.44,73866.3,-1.07,-2.99,-4.09,0,*50
1495847192.44,58362,13.44,73864.5,-1.05,-3.27,-4.09,0,*55
1495847193.67,58363,13.44,73866.8,-1.05,-3.27,-4.21,0,*5E
1495847194.9,58364,13.44,73866.3,-1.05,-3.39,-4.33,0,*55
1495847196.15,58365,13.44,73860.5,-1.05,-3.67,-4.57,0,*5D
1495847197.4,58366,13.44,73866.5,-1.05,-3.79,-4.69,0,*5C
1495847198.66,58367,13.44,73870.3,-1.05,-3.79,-4.73,0,*56
1495847199.89,58368,13.44,73868.3,-1.07,-4.09,-4.85,0,*52
1495847201.14,58369,13.44,73866.8,-1.05,-4.33,-4.81,0,*5C
1495847202.36,58370,13.44,73870.5,-1.05,-4.33,-4.61,0,*5A
1495847203.57,58371,13.44,73868.8,-1.07,-4.61,-4.61,0,*5E
1495847204.79,58372,13.44,73862.5,-1.07,-3.95,-3.63,0,*54
1495847206.05,58373,13.44,73862.5,-1.05,-3.55,-3.47,0,*5D
1495847207.31,58374,13.44,73864.8,-1.05,-3.71,-3.71,0,*59
1495847208.56,58375,13.44,73866.5,-1.07,-3.71,-3.63,0,*59
1495847209.8,58376,13.44,73870.3,-1.07,-3.51,-3.51,0,*59
1495847211.05,58377,13.44,73860.0,-1.07,-3.51,-3.43,0,*5B
1495847212.27,58378,13.44,73862.0,-1.07,-3.43,-3.19,0,*58
1495847213.49,58379,13.44,73866.8,-1.05,-3.19,-3.07,0,*5B
1495847214.7,58380,13.44,73872.3,-1.07,-3.11,-2.95,0,*5D
1495847215.9,58381,13.44,73868.0,-1.07,-2.95,-2.83,0,*56
1495847217.11,58382,13.44,73860.8,-1.05,-2.83,-2.79,0,*55
1495847218.39,58383,13.44,73864.3,-1.05,-2.67,-2.55,0,*50
1495847219.66,58384,13.44,73874.3,-1.05,-2.55,-2.51,0,*52
1495847220.86,58385,13.44,73870.8,-1.07,-2.43,-2.43,0,*55
1495847222.08,58386,13.44,73866.8,-1.05,-2.31,-2.43,0,*51
1495847223.28,58387,13.44,73868.0,-1.07,-2.23,-2.35,0,*50
1495847224.48,58388,13.44,73874.0,-1.07,-2.19,-2.23,0,*51
1495847225.7,58389,13.44,73872.8,-1.07,-2.07,-2.19,0,*56
1495847226.95,58390,13.44,73870.0,-1.05,-2.03,-2.19,0,*58
1495847228.18,58391,13.44,73870.8,-1.07,-2.11,-2.23,0,*51
1495847229.43,58392,13.44,73870.0,-1.05,-1.95,-2.15,0,*5A
1495847230.69,58393,13.44,73872.5,-1.05,-1.95,-1.95,0,*50
1495847231.96,58394,13.44,73868.3,-1.05,-1.91,-2.03,0,*5F
1495847233.22,58395,13.44,73870.0,-1.07,-1.83,-1.99,0,*5F
1495847234.49,58396,13.44,73870.8,-1.05,-1.91,-2.03,0,*5D
1495847235.76,58397,13.44,73864.8,-1.05,-1.95,-2.03,0,*58
1495847237.03,58398,13.44,73870.0,-1.05,-2.03,-2.03,0,*5B
1495847238.3,58399,13.44,73864.3,-1.05,-1.95,-2.03,0,*56
1495847239.57,58400,13.44,73870.8,-1.05,-1.91,-2.03,0,*55
1495847240.84,58401,13.44,73872.3,-1.05,-1.95,-2.03,0,*50
1495847242.1,58402,13.44,73870.8,-1.05,-1.91,-1.95,0,*5B
1495847243.37,58403,13.44,73864.0,-1.05,-1.91,-1.95,0,*5A
1495847244.63,58404,13.44,73864.0,-1.05,-1.83,-1.95,0,*5E
1495847245.89,58405,13.44,73870.0,-1.07,-1.95,-1.99,0,*56
1495847247.15,58406,13.44,73874.8,-1.05,-1.91,-1.95,0,*5F
1495847248.41,58407,13.44,73870.0,-1.07,-1.87,-1.99,0,*57
1495847249.68,58408,13.44,73866.3,-1.05,-1.83,-2.03,0,*5E
1495847250.95,58409,13.44,73868.0,-1.05,-1.91,-2.03,0,*5C
1495847252.22,58410,13.44,73870.0,-1.05,-1.95,-2.03,0,*50
1495847253.47,58411,13.44,73868.8,-1.07,-1.83,-1.99,0,*54
1495847254.72,58412,13.44,73874.3,-1.03,-1.83,-1.91,0,*5B
1495847256.0,58413,13.44,73868.8,-1.05,-1.83,-1.91,0,*5C
1495847257.27,58414,13.44,73864.8,-1.05,-1.83,-1.91,0,*5B
1495847258.54,58415,13.44,73866.5,-1.05,-1.83,-1.95,0,*5E
1495847259.8,58416,13.44,73868.8,-1.05,-1.91,-1.95,0,*5E
1495847261.06,58417,13.44,73870.5,-1.05,-1.95,-1.95,0,*5B
1495847262.33,58418,13.44,73868.5,-1.05,-1.95,-1.95,0,*54
1495847263.59,58419,13.44,73870.0,-1.05,-1.83,-1.95,0,*52
1495847264.87,58420,13.44,73860.0,-1.05,-1.83,-1.91,0,*5C
1495847266.13,58421,13.44,73860.8,-1.05,-1.95,-2.03,0,*52
1495847267.39,58422,13.44,73864.3,-1.07,-1.91,-2.07,0,*53
1495847268.65,58423,13.44,73860.8,-1.05,-1.83,-1.95,0,*5B
1495847269.88,58424,13.44,73864.5,-1.03,-1.79,-1.99,0,*53
1495847271.15,58425,13.44,73866.3,-1.05,-1.83,-1.95,0,*5D
1495847272.41,58426,13.44,73862.8,-1.05,-1.91,-1.95,0,*5D
1495847273.65,58427,13.44,73862.8,-1.03,-1.91,-1.95,0,*5A
1495847274.9,58428,13.44,73852.3,-1.03,-1.91,-2.07,0,*5D
1495847276.15,58429,13.44,73850.5,-1.03,-1.91,-2.07,0,*5C
1495847277.4,58430,13.44,73846.0,-1.03,-1.95,-2.07,0,*50
1495847278.62,58431,13.44,73848.5,-1.03,-2.07,-2.15,0,*5A
1495847279.85,58432,13.44,73850.8,-1.03,-2.03,-2.19,0,*51
1495847281.07,58433,13.44,73846.8,-1.03,-2.03,-2.15,0,*5C
1495847282.32,58434,13.44,73858.5,-1.07,-1.95,-2.11,0,*57
1495847283.57,58435,13.38,73860.0,-1.03,-1.95,-2.07,0,*55
1495847284.78,58436,13.44,73854.0,-1.05,-2.15,-2.27,0,*59
1495847286.03,58437,13.44,73854.8,-1.05,-2.07,-2.15,0,*5A
1495847287.28,58438,13.44,73848.3,-1.05,-2.03,-2.27,0,*50
1495847288.55,58439,13.44,73848.3,-1.05,-2.03,-2.71,0,*52
1495847289.8,58440,13.44,73856.5,-1.05,-2.07,-2.79,0,*50
1495847291.07,58441,13.44,73846.5,-1.05,-2.07,-2.67,0,*5E
1495847292.3,58442,13.44,73846.0,-1.07,-2.19,-2.71,0,*57
1495847293.49,58443,13.44,73858.8,-1.07,-2.23,-2.83,0,*52
1495847294.72,58444,13.44,73858.8,-1.07,-2.31,-3.59,0,*50
1495847295.92,58445,13.44,73856.5,-1.07,-3.11,-6.43,0,*5C
1495847297.18,58446,13.44,73860.8,-1.05,-3.91,-7.57,0,*51
1495847298.42,58447,13.44,73860.5,-1.05,-4.17,-7.77,0,*5B
1495847299.64,58448,13.44,73852.3,-1.05,-4.09,-6.77,0,*5A
1495847300.9,58449,13.44,73854.0,-1.07,-3.47,-5.11,0,*57
1495847302.11,58450,13.44,73854.5,-1.07,-2.95,-4.09,0,*59
1495847303.32,58451,13.44,73850.0,-1.07,-2.83,-3.47,0,*52
1495847304.54,58452,13.44,73854.8,-1.07,-2.67,-3.35,0,*5E
1495847305.75,58453,13.44,73860.0,-1.07,-2.95,-4.25,0,*54
1495847306.96,58454,13.44,73860.5,-1.07,-4.21,-5.51,0,*58
1495847308.2,58455,13.44,73860.3,-1.07,-4.21,-5.31,0,*5F
1495847309.4,58456,13.44,73858.8,-1.07,-3.87,-4.99,0,*54
1495847310.65,58457,13.44,73866.3,-1.07,-3.71,-4.89,0,*5D
1495847311.86,58458,13.44,73862.5,-1.07,-3.31,-4.61,0,*50
1495847313.06,58459,13.44,73856.8,-1.07,-2.87,-4.53,0,*5C
1495847314.26,58460,13.44,73860.0,-1.07,-2.83,-4.41,0,*51